| time (UTC) | temp F | wind direction | speed MPH | gust MPH | rain 1hr in | rain 24hr in | rain mn in | humidity % | barometer mb |
| 20260906101535 | 70 | 191 | 0.0 | 0.0 | 0.00 | 0.28 | 0.00 | 95 | 1013.4 |
| 20260906101019 | 70 | 296 | 0.0 | 0.0 | 0.00 | 0.28 | 0.00 | 95 | 1013.2 |
| 20260906100520 | 70 | 296 | 0.0 | 0.0 | 0.00 | 0.28 | 0.00 | 95 | 1013.1 |
| 20260906100035 | 70 | 290 | 0.0 | 0.0 | 0.00 | 0.28 | 0.00 | 94 | 1013.1 |
| 20260906095520 | 70 | 290 | 0.0 | 0.0 | 0.00 | 0.28 | 0.00 | 94 | 1013.0 |
| 20260906095018 | 70 | 290 | 0.0 | 0.0 | 0.00 | 0.28 | 0.00 | 94 | 1012.9 |
| 20260906094554 | 70 | 290 | 0.0 | 0.0 | 0.00 | 0.28 | 0.00 | 94 | 1012.8 |
| 20260906094016 | 70 | 290 | 0.0 | 0.0 | 0.00 | 0.28 | 0.00 | 94 | 1012.8 |
| 20260906093510 | 70 | 290 | 0.0 | 0.0 | 0.00 | 0.28 | 0.00 | 94 | 1012.8 |
| 20260906093039 | 70 | 290 | 0.0 | 0.0 | 0.00 | 0.28 | 0.00 | 94 | 1012.8 |
| 20260906092514 | 70 | 290 | 0.0 | 0.0 | 0.00 | 0.28 | 0.00 | 94 | 1012.9 |
| 20260906092014 | 70 | 290 | 0.0 | 0.0 | 0.00 | 0.28 | 0.00 | 94 | 1012.8 |
| 20260906091529 | 70 | 290 | 0.0 | 0.0 | 0.00 | 0.28 | 0.00 | 93 | 1012.8 |
| 20260906091016 | 70 | 290 | 0.0 | 0.0 | 0.00 | 0.28 | 0.00 | 93 | 1012.7 |
| 20260906090515 | 70 | 290 | 0.0 | 0.0 | 0.00 | 0.28 | 0.00 | 94 | 1012.7 |
| 20260906090033 | 70 | 290 | 0.0 | 0.0 | 0.00 | 0.28 | 0.00 | 93 | 1012.6 |
| 20260906085518 | 70 | 289 | 0.0 | 0.0 | 0.00 | 0.28 | 0.00 | 93 | 1012.5 |
| 20260906085005 | 70 | 289 | 0.0 | 0.0 | 0.00 | 0.28 | 0.00 | 93 | 1012.5 |
| 20260906084517 | 70 | 289 | 0.0 | 0.0 | 0.00 | 0.28 | 0.00 | 93 | 1012.4 |
| 20260906084015 | 70 | 289 | 0.0 | 0.0 | 0.00 | 0.28 | 0.00 | 93 | 1012.4 |
| 20260906083510 | 70 | 289 | 0.0 | 0.0 | 0.00 | 0.28 | 0.00 | 93 | 1012.4 |
| 20260906083043 | 70 | 289 | 0.0 | 0.0 | 0.00 | 0.28 | 0.00 | 93 | 1012.5 |
| 20260906082519 | 70 | 289 | 0.0 | 0.0 | 0.00 | 0.28 | 0.00 | 93 | 1012.6 |
| 20260906082024 | 70 | 289 | 0.0 | 0.0 | 0.00 | 0.28 | 0.00 | 93 | 1012.5 |
| 20260906081533 | 70 | 289 | 0.0 | 0.0 | 0.00 | 0.28 | 0.00 | 93 | 1012.3 |
| 20260906081015 | 70 | 289 | 0.0 | 0.0 | 0.00 | 0.28 | 0.00 | 93 | 1012.2 |
| 20260906080519 | 70 | 289 | 0.0 | 0.0 | 0.00 | 0.28 | 0.00 | 93 | 1012.0 |
| 20260906080039 | 70 | 289 | 0.0 | 0.0 | 0.00 | 0.28 | 0.00 | 93 | 1012.1 |
| 20260906075514 | 70 | 279 | 0.0 | 0.0 | 0.00 | 0.28 | 0.00 | 93 | 1012.0 |
| 20260906075018 | 70 | 279 | 0.0 | 0.0 | 0.00 | 0.28 | 0.00 | 93 | 1011.8 |
| 20260906074534 | 70 | 279 | 0.0 | 0.0 | 0.00 | 0.28 | 0.00 | 93 | 1011.8 |
| 20260906074007 | 71 | 279 | 0.0 | 0.0 | 0.00 | 0.28 | 0.00 | 93 | 1011.8 |
| 20260906073509 | 71 | 279 | 0.0 | 0.0 | 0.00 | 0.28 | 0.00 | 93 | 1011.8 |
| 20260906073028 | 71 | 275 | 0.0 | 0.0 | 0.00 | 0.28 | 0.00 | 93 | 1011.8 |
| 20260906072510 | 71 | 265 | 0.0 | 0.0 | 0.00 | 0.28 | 0.00 | 93 | 1011.9 |
| 20260906072014 | 71 | 265 | 0.0 | 0.0 | 0.00 | 0.28 | 0.00 | 93 | 1011.9 |
| 20260906071522 | 71 | 265 | 0.0 | 0.0 | 0.00 | 0.28 | 0.00 | 93 | 1012.1 |
| 20260906071014 | 71 | 227 | 0.0 | 0.0 | 0.00 | 0.28 | 0.00 | 93 | 1012.2 |
| 20260906070516 | 71 | 227 | 0.0 | 0.0 | 0.00 | 0.28 | 0.00 | 93 | 1012.4 |
| 20260906070033 | 71 | 230 | 0.0 | 0.0 | 0.00 | 0.28 | 0.00 | 93 | 1012.3 |
| 20260906065516 | 71 | 273 | 0.0 | 0.0 | 0.00 | 0.28 | 0.00 | 93 | 1012.4 |
| 20260906065016 | 71 | 273 | 0.0 | 0.0 | 0.00 | 0.28 | 0.00 | 93 | 1012.4 |
| 20260906064529 | 71 | 273 | 0.0 | 0.0 | 0.00 | 0.28 | 0.00 | 93 | 1012.4 |
| 20260906064015 | 71 | 273 | 0.0 | 0.0 | 0.00 | 0.28 | 0.00 | 93 | 1012.6 |
| 20260906063506 | 71 | 273 | 0.0 | 0.0 | 0.00 | 0.28 | 0.00 | 93 | 1012.7 |
| 20260906063019 | 71 | 273 | 0.0 | 0.0 | 0.00 | 0.28 | 0.00 | 93 | 1012.7 |
| 20260906062509 | 71 | 273 | 0.0 | 0.0 | 0.00 | 0.28 | 0.00 | 93 | 1012.7 |
| 20260906062010 | 72 | 273 | 0.0 | 0.0 | 0.00 | 0.28 | 0.00 | 93 | 1012.8 |
| 20260906061537 | 72 | 273 | 0.0 | 0.0 | 0.00 | 0.28 | 0.00 | 93 | 1012.9 |
| 20260906061012 | 72 | 273 | 0.0 | 0.0 | 0.00 | 0.28 | 0.00 | 93 | 1012.8 |
| 20260906060519 | 72 | 273 | 0.0 | 0.0 | 0.00 | 0.28 | 0.00 | 93 | 1012.8 |
| 20260906060035 | 72 | 273 | 0.0 | 0.0 | 0.00 | 0.28 | 0.00 | 93 | 1012.9 |
| 20260906055515 | 72 | 273 | 0.0 | 0.0 | 0.00 | 0.28 | 0.00 | 93 | 1012.9 |
| 20260906055016 | 72 | 273 | 0.0 | 0.0 | 0.00 | 0.28 | 0.00 | 93 | 1012.9 |
| 20260906054535 | 72 | 273 | 0.0 | 0.0 | 0.00 | 0.28 | 0.00 | 93 | 1012.8 |
| 20260906054021 | 72 | 273 | 0.0 | 0.0 | 0.00 | 0.28 | 0.00 | 93 | 1012.8 |
| 20260906053515 | 72 | 273 | 0.0 | 0.0 | 0.00 | 0.28 | 0.00 | 93 | 1012.7 |
| 20260906053031 | 72 | 273 | 0.0 | 0.0 | 0.00 | 0.28 | 0.00 | 93 | 1012.6 |
| 20260906052510 | 72 | 273 | 0.0 | 0.0 | 0.00 | 0.28 | 0.00 | 93 | 1012.7 |
| 20260906052008 | 72 | 273 | 0.0 | 0.0 | 0.00 | 0.28 | 0.00 | 93 | 1012.6 |
| 20260906051520 | 72 | 273 | 0.0 | 0.0 | 0.00 | 0.28 | 0.00 | 93 | 1012.7 |
| 20260906051014 | 72 | 273 | 0.0 | 0.0 | 0.00 | 0.28 | 0.00 | 93 | 1012.7 |
| 20260906050511 | 72 | 273 | 0.0 | 0.0 | 0.00 | 0.28 | 0.00 | 93 | 1012.7 |
| 20260906050034 | 72 | 273 | 0.0 | 0.0 | 0.00 | 0.28 | 0.00 | 93 | 1012.7 |
| 20260906045518 | 72 | 273 | 0.0 | 0.0 | 0.00 | 0.28 | 0.00 | 93 | 1012.8 |
| 20260906045015 | 72 | 273 | 0.0 | 0.0 | 0.00 | 0.28 | 0.00 | 93 | 1012.9 |
| 20260906044532 | 72 | 273 | 0.0 | 0.0 | 0.00 | 0.28 | 0.00 | 93 | 1012.9 |
| 20260906044015 | 72 | 273 | 0.0 | 0.0 | 0.00 | 0.28 | 0.00 | 93 | 1012.9 |
| 20260906043516 | 72 | 273 | 0.0 | 0.0 | 0.00 | 0.28 | 0.00 | 92 | 1013.0 |
| 20260906043030 | 73 | 273 | 0.0 | 0.0 | 0.00 | 0.28 | 0.00 | 93 | 1013.0 |
| 20260906042518 | 73 | 273 | 0.0 | 0.0 | 0.00 | 0.28 | 0.00 | 93 | 1013.1 |
| 20260906042014 | 73 | 273 | 0.0 | 0.0 | 0.00 | 0.28 | 0.00 | 93 | 1013.2 |
| 20260906041537 | 73 | 273 | 0.0 | 0.0 | 0.00 | 0.28 | 0.00 | 93 | 1013.4 |
| 20260906041020 | 73 | 273 | 0.0 | 0.0 | 0.00 | 0.28 | 0.00 | 93 | 1013.4 |
| 20260906040519 | 73 | 273 | 0.0 | 0.0 | 0.00 | 0.28 | 0.00 | 93 | 1013.2 |
| 20260906040029 | 73 | 273 | 0.0 | 0.0 | 0.00 | 0.28 | 0.00 | 93 | 1013.2 |
| 20260906035511 | 73 | 273 | 0.0 | 0.0 | 0.00 | 0.28 | 0.28 | 93 | 1013.1 |
| 20260906035013 | 73 | 273 | 0.0 | 0.0 | 0.00 | 0.28 | 0.28 | 93 | 1013.1 |
| 20260906034529 | 73 | 273 | 0.0 | 0.0 | 0.00 | 0.28 | 0.28 | 93 | 1013.1 |
| 20260906034014 | 73 | 273 | 0.0 | 0.0 | 0.00 | 0.28 | 0.28 | 93 | 1013.2 |
| 20260906033515 | 73 | 273 | 0.0 | 0.0 | 0.00 | 0.28 | 0.28 | 93 | 1013.3 |
| 20260906033044 | 73 | 273 | 0.0 | 0.0 | 0.00 | 0.28 | 0.28 | 93 | 1013.3 |
| 20260906032516 | 73 | 273 | 0.0 | 0.0 | 0.00 | 0.28 | 0.28 | 93 | 1013.1 |
| 20260906032015 | 73 | 273 | 0.0 | 0.0 | 0.00 | 0.28 | 0.28 | 93 | 1013.1 |
| 20260906031538 | 73 | 273 | 0.0 | 0.0 | 0.00 | 0.28 | 0.28 | 92 | 1013.0 |
| 20260906031019 | 73 | 273 | 0.0 | 0.0 | 0.00 | 0.28 | 0.28 | 92 | 1013.0 |
| 20260906030516 | 73 | 273 | 0.0 | 0.0 | 0.00 | 0.28 | 0.28 | 92 | 1013.0 |
| 20260906030019 | 73 | 273 | 0.0 | 0.0 | 0.00 | 0.28 | 0.28 | 92 | 1013.0 |
| 20260906025511 | 73 | 273 | 0.0 | 0.0 | 0.00 | 0.28 | 0.28 | 92 | 1013.2 |
| 20260906025012 | 73 | 273 | 0.0 | 0.0 | 0.00 | 0.28 | 0.28 | 92 | 1013.2 |
| 20260906024541 | 73 | 273 | 0.0 | 0.0 | 0.00 | 0.28 | 0.28 | 92 | 1013.1 |
| 20260906024003 | 73 | 273 | 0.0 | 0.0 | 0.00 | 0.28 | 0.28 | 92 | 1013.0 |
| 20260906023505 | 73 | 273 | 0.0 | 0.0 | 0.00 | 0.28 | 0.28 | 92 | 1012.9 |
| 20260906023033 | 73 | 273 | 0.0 | 0.0 | 0.00 | 0.28 | 0.28 | 92 | 1012.9 |
| 20260906022516 | 73 | 273 | 0.0 | 0.0 | 0.00 | 0.28 | 0.28 | 92 | 1012.9 |
| 20260906022006 | 73 | 273 | 0.0 | 0.0 | 0.00 | 0.28 | 0.28 | 92 | 1012.9 |
| 20260906021512 | 73 | 273 | 0.0 | 0.0 | 0.00 | 0.28 | 0.28 | 92 | 1012.9 |
| 20260906021019 | 73 | 273 | 0.0 | 0.0 | 0.00 | 0.28 | 0.28 | 91 | 1012.8 |
| 20260906020508 | 74 | 273 | 0.0 | 0.0 | 0.00 | 0.28 | 0.28 | 91 | 1012.8 |
| 20260906020018 | 74 | 273 | 0.0 | 0.0 | 0.00 | 0.28 | 0.28 | 91 | 1012.9 |
| 20260906015509 | 74 | 273 | 0.0 | 0.0 | 0.00 | 0.28 | 0.28 | 91 | 1012.9 |
| 20260906015011 | 74 | 273 | 0.0 | 0.0 | 0.00 | 0.28 | 0.28 | 91 | 1013.0 |
| 20260906014537 | 74 | 273 | 0.0 | 0.0 | 0.00 | 0.28 | 0.28 | 91 | 1013.0 |
| 20260906014009 | 74 | 273 | 0.0 | 0.0 | 0.00 | 0.28 | 0.28 | 90 | 1012.7 |
| 20260906013503 | 74 | 273 | 0.0 | 0.0 | 0.00 | 0.28 | 0.28 | 90 | 1012.7 |
| 20260906013020 | 74 | 273 | 0.0 | 0.0 | 0.00 | 0.28 | 0.28 | 90 | 1012.6 |
| 20260906012505 | 74 | 273 | 0.0 | 0.0 | 0.00 | 0.28 | 0.28 | 90 | 1012.5 |
| 20260906012004 | 74 | 273 | 0.0 | 0.0 | 0.00 | 0.28 | 0.28 | 90 | 1012.5 |
| 20260906011530 | 74 | 273 | 0.0 | 0.0 | 0.00 | 0.28 | 0.28 | 89 | 1012.6 |
| 20260906011005 | 74 | 273 | 0.0 | 0.0 | 0.00 | 0.28 | 0.28 | 89 | 1012.5 |
| 20260906010508 | 74 | 273 | 0.0 | 0.0 | 0.00 | 0.28 | 0.28 | 89 | 1012.4 |
| 20260906010015 | 74 | 273 | 0.0 | 0.0 | 0.00 | 0.28 | 0.28 | 88 | 1012.4 |
| 20260906005506 | 75 | 273 | 0.0 | 0.0 | 0.00 | 0.28 | 0.28 | 88 | 1012.4 |
| 20260906005011 | 75 | 273 | 0.0 | 0.0 | 0.00 | 0.28 | 0.28 | 88 | 1012.3 |
| 20260906004520 | 75 | 273 | 0.0 | 1.0 | 0.00 | 0.28 | 0.28 | 87 | 1012.3 |
| 20260906004024 | 75 | 273 | 0.0 | 1.0 | 0.00 | 0.28 | 0.28 | 87 | 1012.3 |
| 20260906003512 | 75 | 273 | 0.0 | 0.0 | 0.00 | 0.28 | 0.28 | 87 | 1012.2 |
| 20260906003031 | 75 | 273 | 0.0 | 0.0 | 0.00 | 0.28 | 0.28 | 86 | 1012.2 |
| 20260906002503 | 76 | 273 | 0.0 | 0.0 | 0.00 | 0.28 | 0.28 | 86 | 1012.0 |
| 20260906002013 | 76 | 273 | 0.0 | 0.0 | 0.00 | 0.28 | 0.28 | 85 | 1012.0 |
| 20260906001508 | 76 | 273 | 0.0 | 0.0 | 0.00 | 0.28 | 0.28 | 85 | 1012.0 |
| 20260906001003 | 76 | 273 | 0.0 | 0.0 | 0.00 | 0.28 | 0.28 | 83 | 1012.0 |
| 20260906000516 | 77 | 273 | 0.0 | 0.0 | 0.00 | 0.28 | 0.28 | 83 | 1012.0 |
| 20260906000012 | 77 | 273 | 0.0 | 0.0 | 0.00 | 0.28 | 0.28 | 83 | 1011.9 |
| 20260905235503 | 77 | 273 | 0.0 | 0.0 | 0.00 | 0.28 | 0.28 | 82 | 1011.9 |
| 20260905235008 | 77 | 273 | 0.0 | 0.0 | 0.00 | 0.28 | 0.28 | 82 | 1011.9 |
| 20260905234518 | 78 | 273 | 0.0 | 0.0 | 0.00 | 0.28 | 0.28 | 81 | 1011.7 |
| 20260905234010 | 78 | 273 | 0.0 | 2.0 | 0.00 | 0.28 | 0.28 | 81 | 1011.8 |
| 20260905233515 | 78 | 273 | 0.0 | 2.0 | 0.00 | 0.28 | 0.28 | 80 | 1011.8 |
| 20260905233026 | 79 | 273 | 0.0 | 2.0 | 0.00 | 0.28 | 0.28 | 78 | 1011.8 |
| 20260905232513 | 79 | 273 | 0.0 | 2.0 | 0.00 | 0.28 | 0.28 | 78 | 1011.7 |
| 20260905232013 | 79 | 273 | 0.0 | 2.0 | 0.00 | 0.28 | 0.28 | 76 | 1011.8 |
| 20260905231529 | 80 | 290 | 0.0 | 2.0 | 0.00 | 0.28 | 0.28 | 76 | 1011.7 |
| 20260905231003 | 80 | 290 | 0.0 | 1.0 | 0.00 | 0.28 | 0.28 | 76 | 1011.8 |
| 20260905230514 | 80 | 290 | 0.0 | 2.0 | 0.00 | 0.28 | 0.28 | 75 | 1011.8 |
| 20260905230010 | 80 | 290 | 0.0 | 1.0 | 0.00 | 0.28 | 0.28 | 74 | 1011.6 |
| 20260905225506 | 81 | 290 | 0.0 | 2.0 | 0.00 | 0.28 | 0.28 | 74 | 1011.6 |
| 20260905225016 | 81 | 290 | 0.0 | 2.0 | 0.00 | 0.28 | 0.28 | 73 | 1011.6 |
| 20260905224514 | 81 | 311 | 0.0 | 2.0 | 0.00 | 0.28 | 0.28 | 73 | 1011.7 |
| 20260905224011 | 81 | 311 | 0.0 | 2.0 | 0.00 | 0.28 | 0.28 | 71 | 1011.8 |
| 20260905223509 | 81 | 341 | 0.0 | 2.0 | 0.00 | 0.28 | 0.28 | 73 | 1011.7 |
| 20260905223033 | 81 | 294 | 0.0 | 2.0 | 0.00 | 0.28 | 0.28 | 73 | 1011.6 |
| 20260905222512 | 82 | 290 | 0.0 | 2.0 | 0.00 | 0.28 | 0.28 | 72 | 1011.6 |
| 20260905222012 | 82 | 290 | 0.0 | 2.0 | 0.00 | 0.28 | 0.28 | 74 | 1011.7 |
| 20260905221528 | 82 | 290 | 0.0 | 2.0 | 0.00 | 0.28 | 0.28 | 77 | 1011.5 |
| 20260905221014 | 82 | 290 | 1.0 | 2.0 | 0.00 | 0.28 | 0.28 | 73 | 1011.5 |
| 20260905220514 | 81 | 298 | 1.0 | 2.0 | 0.00 | 0.28 | 0.28 | 73 | 1011.5 |
| 20260905220007 | 81 | 253 | 0.0 | 2.0 | 0.00 | 0.28 | 0.28 | 73 | 1011.6 |
| 20260905215507 | 81 | 232 | 0.0 | 2.0 | 0.00 | 0.28 | 0.28 | 74 | 1011.8 |
| 20260905215005 | 80 | 269 | 0.0 | 2.0 | 0.00 | 0.28 | 0.28 | 75 | 1012.0 |
| 20260905214515 | 80 | 214 | 0.0 | 2.0 | 0.00 | 0.28 | 0.28 | 77 | 1012.0 |
| 20260905214009 | 79 | 234 | 0.0 | 2.0 | 0.00 | 0.28 | 0.28 | 75 | 1012.1 |
| 20260905213510 | 79 | 233 | 0.0 | 2.0 | 0.00 | 0.28 | 0.28 | 77 | 1012.1 |
| 20260905213019 | 78 | 159 | 0.0 | 2.0 | 0.00 | 0.28 | 0.28 | 78 | 1012.2 |
| 20260905212510 | 78 | 141 | 0.0 | 2.0 | 0.00 | 0.28 | 0.28 | 78 | 1012.3 |
| 20260905212013 | 78 | 141 | 0.0 | 2.0 | 0.00 | 0.28 | 0.28 | 77 | 1012.4 |
| 20260905211535 | 78 | 166 | 0.0 | 2.0 | 0.00 | 0.30 | 0.28 | 80 | 1012.3 |
| 20260905211014 | 77 | 136 | 0.0 | 2.0 | 0.00 | 0.32 | 0.28 | 80 | 1012.3 |
| 20260905210515 | 77 | 127 | 1.0 | 2.0 | 0.00 | 0.32 | 0.28 | 79 | 1012.4 |
| 20260905210039 | 77 | 253 | 0.0 | 2.0 | 0.00 | 0.32 | 0.28 | 80 | 1012.4 |
| 20260905205516 | 77 | 253 | 0.0 | 2.0 | 0.00 | 0.32 | 0.28 | 81 | 1012.3 |
| 20260905205010 | 77 | 266 | 0.0 | 2.0 | 0.00 | 0.32 | 0.28 | 81 | 1012.2 |
| 20260905204511 | 77 | 269 | 0.0 | 2.0 | 0.00 | 0.32 | 0.28 | 83 | 1012.4 |
| 20260905204018 | 76 | 269 | 0.0 | 4.0 | 0.00 | 0.32 | 0.28 | 84 | 1012.4 |
| 20260905203507 | 76 | 224 | 0.0 | 3.0 | 0.00 | 0.32 | 0.28 | 83 | 1012.3 |
| 20260905203016 | 76 | 255 | 1.0 | 6.0 | 0.00 | 0.32 | 0.28 | 84 | 1012.3 |
| 20260905202514 | 75 | 261 | 1.0 | 6.0 | 0.00 | 0.32 | 0.28 | 85 | 1012.2 |
| 20260905202010 | 75 | 230 | 2.0 | 4.0 | 0.00 | 0.32 | 0.28 | 86 | 1012.4 |
| 20260905201523 | 74 | 274 | 1.0 | 3.0 | 0.00 | 0.32 | 0.28 | 89 | 1012.4 |
| 20260905201012 | 74 | 209 | 1.0 | 3.0 | 0.00 | 0.32 | 0.28 | 89 | 1012.4 |
| 20260905200519 | 74 | 202 | 0.0 | 2.0 | 0.00 | 0.32 | 0.28 | 90 | 1012.2 |
| 20260905200028 | 73 | 105 | 0.0 | 2.0 | 0.00 | 0.32 | 0.28 | 91 | 1012.2 |
| 20260905195516 | 73 | 102 | 0.0 | 2.0 | 0.00 | 0.32 | 0.28 | 91 | 1012.2 |
| 20260905195018 | 72 | 211 | 0.0 | 2.0 | 0.00 | 0.32 | 0.28 | 91 | 1012.8 |
| 20260905194530 | 72 | 110 | 0.0 | 2.0 | 0.00 | 0.32 | 0.28 | 90 | 1012.9 |
| 20260905194006 | 72 | 111 | 1.0 | 6.0 | 0.00 | 0.32 | 0.28 | 91 | 1013.2 |
| 20260905193507 | 72 | 128 | 2.0 | 6.0 | 0.00 | 0.32 | 0.28 | 91 | 1013.3 |
| 20260905193012 | 72 | 94 | 1.0 | 3.0 | 0.00 | 0.32 | 0.28 | 92 | 1013.4 |
| 20260905192512 | 71 | 110 | 2.0 | 3.0 | 0.00 | 0.32 | 0.28 | 92 | 1013.3 |
| 20260905192009 | 71 | 252 | 0.0 | 2.0 | 0.01 | 0.32 | 0.28 | 92 | 1013.3 |
| 20260905191518 | 71 | 287 | 0.0 | 2.0 | 0.04 | 0.32 | 0.28 | 92 | 1012.5 |
| 20260905191013 | 71 | 277 | 0.0 | 2.0 | 0.09 | 0.32 | 0.28 | 91 | 1012.2 |
| 20260905190511 | 71 | 270 | 0.0 | 2.0 | 0.25 | 0.32 | 0.28 | 90 | 1012.1 |
| 20260905190027 | 70 | 149 | 0.0 | 2.0 | 0.28 | 0.32 | 0.28 | 89 | 1011.7 |
| 20260905185513 | 71 | 149 | 0.0 | 3.0 | 0.28 | 0.32 | 0.28 | 90 | 1011.2 |
| 20260905185015 | 71 | 82 | 1.0 | 3.0 | 0.28 | 0.32 | 0.28 | 89 | 1011.0 |
| 20260905184538 | 71 | 113 | 1.0 | 3.0 | 0.28 | 0.32 | 0.28 | 88 | 1011.4 |
| 20260905184015 | 71 | 115 | 2.0 | 3.0 | 0.28 | 0.32 | 0.28 | 87 | 1011.8 |
| 20260905183522 | 71 | 116 | 0.0 | 2.0 | 0.28 | 0.32 | 0.28 | 88 | 1012.0 |
| 20260905183013 | 71 | 190 | 0.0 | 3.0 | 0.28 | 0.32 | 0.28 | 88 | 1012.0 |
| 20260905182504 | 71 | 258 | 0.0 | 5.0 | 0.28 | 0.32 | 0.28 | 83 | 1012.5 |
| 20260905182008 | 72 | 273 | 2.0 | 7.0 | 0.27 | 0.31 | 0.27 | 82 | 1013.2 |
| 20260905181517 | 73 | 243 | 2.0 | 10.0 | 0.24 | 0.28 | 0.24 | 72 | 1014.0 |
| 20260905181022 | 76 | 352 | 4.0 | 20.0 | 0.19 | 0.23 | 0.19 | 72 | 1014.7 |
| 20260905180510 | 81 | 347 | 5.0 | 20.0 | 0.03 | 0.07 | 0.03 | 60 | 1014.3 |
| 20260905180024 | 88 | 236 | 3.0 | 20.0 | 0.00 | 0.04 | 0.00 | 52 | 1013.4 |
| 20260905175515 | 92 | 321 | 5.0 | 20.0 | 0.00 | 0.04 | 0.00 | 55 | 1012.7 |
| 20260905175014 | 93 | 288 | 1.0 | 6.0 | 0.00 | 0.04 | 0.00 | 52 | 1012.5 |
| 20260905174526 | 93 | 284 | 2.0 | 6.0 | 0.00 | 0.04 | 0.00 | 51 | 1012.4 |
| 20260905174013 | 94 | 200 | 1.0 | 4.0 | 0.00 | 0.04 | 0.00 | 53 | 1012.4 |
| 20260905173516 | 94 | 65 | 1.0 | 4.0 | 0.00 | 0.04 | 0.00 | 53 | 1012.2 |
| 20260905173033 | 94 | 311 | 1.0 | 4.0 | 0.00 | 0.04 | 0.00 | 55 | 1012.6 |
| 20260905172516 | 93 | 229 | 0.0 | 3.0 | 0.00 | 0.04 | 0.00 | 55 | 1012.8 |
| 20260905172006 | 93 | 306 | 0.0 | 4.0 | 0.00 | 0.04 | 0.00 | 56 | 1012.8 |
| 20260905171516 | 93 | 183 | 1.0 | 4.0 | 0.00 | 0.04 | 0.00 | 56 | 1013.2 |
| 20260905171007 | 93 | 302 | 1.0 | 4.0 | 0.00 | 0.04 | 0.00 | 57 | 1013.2 |
| 20260905170510 | 92 | 80 | 1.0 | 4.0 | 0.00 | 0.04 | 0.00 | 57 | 1013.3 |
| 20260905170035 | 92 | 259 | 1.0 | 5.0 | 0.00 | 0.04 | 0.00 | 58 | 1013.5 |
| 20260905165511 | 92 | 302 | 2.0 | 5.0 | 0.00 | 0.04 | 0.00 | 56 | 1013.6 |
| 20260905165016 | 92 | 302 | 1.0 | 3.0 | 0.00 | 0.04 | 0.00 | 58 | 1013.7 |
| 20260905164525 | 92 | 298 | 0.0 | 3.0 | 0.00 | 0.04 | 0.00 | 59 | 1013.7 |
| 20260905164017 | 92 | 188 | 1.0 | 3.0 | 0.00 | 0.04 | 0.00 | 58 | 1013.7 |
| 20260905163514 | 92 | 284 | 1.0 | 3.0 | 0.00 | 0.04 | 0.00 | 56 | 1013.8 |
| 20260905163036 | 91 | 224 | 0.0 | 3.0 | 0.00 | 0.04 | 0.00 | 57 | 1013.8 |
| 20260905162516 | 91 | 244 | 1.0 | 5.0 | 0.00 | 0.04 | 0.00 | 57 | 1013.9 |
| 20260905162015 | 91 | 230 | 0.0 | 5.0 | 0.00 | 0.04 | 0.00 | 56 | 1014.0 |
| 20260905161532 | 91 | 300 | 2.0 | 5.0 | 0.00 | 0.04 | 0.00 | 58 | 1014.0 |
| 20260905161020 | 91 | 232 | 1.0 | 3.0 | 0.00 | 0.04 | 0.00 | 57 | 1014.1 |
| 20260905160507 | 90 | 313 | 0.0 | 3.0 | 0.00 | 0.04 | 0.00 | 60 | 1014.0 |
| 20260905160033 | 90 | 214 | 1.0 | 3.0 | 0.00 | 0.04 | 0.00 | 59 | 1014.1 |
| 20260905155509 | 90 | 247 | 1.0 | 3.0 | 0.00 | 0.04 | 0.00 | 59 | 1014.1 |
| 20260905155008 | 90 | 248 | 0.0 | 4.0 | 0.00 | 0.04 | 0.00 | 60 | 1014.2 |
| 20260905154523 | 90 | 269 | 1.0 | 4.0 | 0.00 | 0.04 | 0.00 | 60 | 1014.2 |
| 20260905154013 | 89 | 211 | 1.0 | 4.0 | 0.00 | 0.04 | 0.00 | 62 | 1014.1 |
| 20260905153516 | 89 | 313 | 1.0 | 4.0 | 0.00 | 0.04 | 0.00 | 61 | 1014.3 |
| 20260905153032 | 89 | 244 | 0.0 | 2.0 | 0.00 | 0.04 | 0.00 | 62 | 1014.3 |
| 20260905152520 | 89 | 208 | 1.0 | 3.0 | 0.00 | 0.04 | 0.00 | 61 | 1014.3 |
| 20260905152016 | 89 | 243 | 2.0 | 3.0 | 0.00 | 0.04 | 0.00 | 61 | 1014.3 |
| 20260905151533 | 88 | 289 | 1.0 | 4.0 | 0.00 | 0.04 | 0.00 | 63 | 1014.3 |
| 20260905151018 | 88 | 252 | 0.0 | 4.0 | 0.00 | 0.04 | 0.00 | 66 | 1014.3 |
| 20260905150517 | 87 | 213 | 0.0 | 2.0 | 0.00 | 0.04 | 0.00 | 65 | 1014.4 |
| 20260905150033 | 87 | 197 | 1.0 | 4.0 | 0.00 | 0.04 | 0.00 | 65 | 1014.4 |
| 20260905145518 | 87 | 265 | 1.0 | 4.0 | 0.00 | 0.04 | 0.00 | 66 | 1014.4 |
| 20260905145016 | 87 | 302 | 1.0 | 3.0 | 0.00 | 0.04 | 0.00 | 67 | 1014.5 |
| 20260905144520 | 86 | 167 | 1.0 | 3.0 | 0.00 | 0.04 | 0.00 | 68 | 1014.6 |
| 20260905144013 | 86 | 213 | 0.0 | 2.0 | 0.00 | 0.04 | 0.00 | 68 | 1014.5 |
| 20260905143515 | 85 | 200 | 0.0 | 4.0 | 0.00 | 0.04 | 0.00 | 69 | 1014.5 |
| 20260905143029 | 85 | 337 | 1.0 | 4.0 | 0.00 | 0.04 | 0.00 | 70 | 1014.5 |
| 20260905142515 | 85 | 246 | 0.0 | 4.0 | 0.00 | 0.04 | 0.00 | 71 | 1014.4 |
| 20260905142014 | 84 | 322 | 1.0 | 3.0 | 0.00 | 0.04 | 0.00 | 71 | 1014.5 |
| 20260905141535 | 84 | 295 | 1.0 | 3.0 | 0.00 | 0.04 | 0.00 | 72 | 1014.4 |
| 20260905141015 | 84 | 262 | 0.0 | 4.0 | 0.00 | 0.04 | 0.00 | 73 | 1014.4 |
| 20260905140515 | 83 | 253 | 1.0 | 4.0 | 0.00 | 0.04 | 0.00 | 73 | 1014.3 |
| 20260905140036 | 83 | 209 | 0.0 | 2.0 | 0.00 | 0.04 | 0.00 | 73 | 1014.3 |
| 20260905135515 | 82 | 223 | 0.0 | 2.0 | 0.00 | 0.04 | 0.00 | 75 | 1014.4 |
| 20260905135017 | 82 | 218 | 0.0 | 2.0 | 0.00 | 0.04 | 0.00 | 76 | 1014.4 |
| 20260905134518 | 82 | 234 | 0.0 | 2.0 | 0.00 | 0.04 | 0.00 | 76 | 1014.4 |
| 20260905134008 | 81 | 223 | 0.0 | 2.0 | 0.00 | 0.04 | 0.00 | 77 | 1014.5 |
| 20260905133512 | 81 | 246 | 0.0 | 2.0 | 0.00 | 0.04 | 0.00 | 78 | 1014.5 |
| 20260905133026 | 81 | 266 | 0.0 | 2.0 | 0.00 | 0.04 | 0.00 | 79 | 1014.4 |
| 20260905132514 | 80 | 305 | 0.0 | 2.0 | 0.00 | 0.04 | 0.00 | 79 | 1014.5 |
| 20260905132019 | 80 | 248 | 0.0 | 2.0 | 0.00 | 0.04 | 0.00 | 80 | 1014.5 |
| 20260905131529 | 79 | 250 | 0.0 | 2.0 | 0.00 | 0.04 | 0.00 | 80 | 1014.5 |
| 20260905131016 | 79 | 223 | 0.0 | 2.0 | 0.00 | 0.04 | 0.00 | 81 | 1014.6 |
| 20260905130519 | 78 | 209 | 0.0 | 2.0 | 0.00 | 0.04 | 0.00 | 82 | 1014.7 |
| 20260905130034 | 78 | 235 | 0.0 | 2.0 | 0.00 | 0.04 | 0.00 | 83 | 1014.6 |
| 20260905125517 | 77 | 235 | 0.0 | 2.0 | 0.00 | 0.04 | 0.00 | 84 | 1014.7 |
| 20260905125019 | 77 | 216 | 0.0 | 2.0 | 0.00 | 0.04 | 0.00 | 84 | 1014.7 |
| 20260905124534 | 77 | 216 | 0.0 | 2.0 | 0.00 | 0.04 | 0.00 | 85 | 1014.7 |
| 20260905124018 | 76 | 216 | 0.0 | 2.0 | 0.00 | 0.04 | 0.00 | 86 | 1014.8 |
| 20260905123511 | 76 | 208 | 0.0 | 2.0 | 0.00 | 0.04 | 0.00 | 86 | 1014.7 |
| 20260905123030 | 75 | 111 | 0.0 | 2.0 | 0.00 | 0.04 | 0.00 | 88 | 1014.8 |
| 20260905122515 | 75 | 111 | 0.0 | 2.0 | 0.00 | 0.04 | 0.00 | 89 | 1014.7 |
| 20260905122014 | 74 | 111 | 0.0 | 0.0 | 0.00 | 0.04 | 0.00 | 90 | 1014.7 |
| 20260905121528 | 74 | 111 | 0.0 | 2.0 | 0.00 | 0.04 | 0.00 | 91 | 1014.7 |
| 20260905121019 | 73 | 111 | 0.0 | 2.0 | 0.00 | 0.04 | 0.00 | 92 | 1014.7 |
| 20260905120515 | 73 | 111 | 0.0 | 2.0 | 0.00 | 0.04 | 0.00 | 93 | 1014.7 |
| 20260905120030 | 73 | 111 | 0.0 | 2.0 | 0.00 | 0.04 | 0.00 | 94 | 1014.6 |
| 20260905115515 | 72 | 111 | 0.0 | 1.0 | 0.00 | 0.04 | 0.00 | 94 | 1014.6 |
| 20260905115018 | 72 | 111 | 0.0 | 1.0 | 0.00 | 0.04 | 0.00 | 94 | 1014.5 |
| 20260905114534 | 72 | 111 | 0.0 | 1.0 | 0.00 | 0.04 | 0.00 | 94 | 1014.4 |
| 20260905114020 | 72 | 111 | 0.0 | 0.0 | 0.00 | 0.04 | 0.00 | 94 | 1014.3 |
| 20260905113518 | 72 | 111 | 0.0 | 0.0 | 0.00 | 0.04 | 0.00 | 94 | 1014.3 |
| 20260905113030 | 72 | 111 | 0.0 | 0.0 | 0.00 | 0.04 | 0.00 | 94 | 1014.2 |
| 20260905112508 | 72 | 111 | 0.0 | 2.0 | 0.00 | 0.04 | 0.00 | 94 | 1014.2 |
| 20260905112015 | 72 | 111 | 0.0 | 2.0 | 0.00 | 0.04 | 0.00 | 94 | 1014.2 |
| 20260905111526 | 72 | 111 | 0.0 | 2.0 | 0.00 | 0.04 | 0.00 | 94 | 1014.0 |
| 20260905111014 | 72 | 111 | 0.0 | 0.0 | 0.00 | 0.04 | 0.00 | 94 | 1013.9 |
| 20260905110514 | 72 | 111 | 0.0 | 0.0 | 0.00 | 0.04 | 0.00 | 93 | 1014.0 |
| 20260905110029 | 72 | 111 | 0.0 | 0.0 | 0.00 | 0.04 | 0.00 | 93 | 1014.0 |
| 20260905105516 | 72 | 111 | 0.0 | 0.0 | 0.00 | 0.04 | 0.00 | 93 | 1013.9 |
| 20260905105017 | 72 | 111 | 0.0 | 0.0 | 0.00 | 0.04 | 0.00 | 93 | 1014.0 |
| 20260905104533 | 72 | 111 | 0.0 | 0.0 | 0.00 | 0.04 | 0.00 | 94 | 1013.9 |
| 20260905104018 | 72 | 111 | 0.0 | 0.0 | 0.00 | 0.04 | 0.00 | 93 | 1013.9 |
| 20260905103518 | 72 | 111 | 0.0 | 0.0 | 0.00 | 0.04 | 0.00 | 93 | 1013.8 |
| 20260905103037 | 72 | 111 | 0.0 | 0.0 | 0.00 | 0.04 | 0.00 | 93 | 1013.7 |
| 20260905102515 | 72 | 111 | 0.0 | 2.0 | 0.00 | 0.04 | 0.00 | 93 | 1013.7 |
| 20260905102016 | 72 | 111 | 0.0 | 2.0 | 0.00 | 0.04 | 0.00 | 93 | 1013.7 |